150  
ASGM40 PGUM 170510  
RWRGUM  
WEATHER ROUNDUP FOR THE MARIANAS  
NATIONAL WEATHER SERVICE TIYAN GU  
300 PM CHST THU JAN 17 2019  
 
GUZ001>004-170600-  
MARIANA ISLANDS-  
 
CITY SKY/WX TMP DP RH WIND PRES REMARKS
 
GUAM AIRPORT MOSUNNY 88 77 70 E21 29.79F HX 100  
ANDERSEN AFB PTSUNNY 82 73 74 E16 29.80  
ROTA AIRPORT PTSUNNY 82 70 65 E17 29.79F  
TINIAN AP MOSUNNY N/A N/A N/A E16 29.79F  
SAIPAN AP MOSUNNY 84 73 70 E18G25 29.81F HX 91  
 

 
 
 
 
CLICK HERE TO GO TO PREVIOUS BULLETINS.

The Nexlab GU Page Main Text Page